Regional Weather Roundup
Issued by NWS

Home | Current Version | Previous Version | Text Only | Print | Product List | Glossary On
Versions: 1 2 3 4 5 6 7 8 9 10 11 12 13 14 15 16 17 18 19 20 21 22 23 24 25 26 27 28 29 30 31 32 33 34 35 36 37 38 39 40 41 42 43 44 45 46 47 48 49 50
000
ASUS45 KPSR 241410
RWRAZ

ARIZONA REGIONAL HOURLY WEATHER ROUNDUP
NATIONAL WEATHER SERVICE TUCSON AZ
700 AM MST WED MAY 24 2017

NOTE: FAIR INDICATES FEW OR NO CLOUDS BELOW 12,000 FEET WITH NO
SIGNIFICANT WEATHER AND/OR OBSTRUCTIONS TO VISIBILITY.

AZZ001>003-036-241500-
NORTHWEST ARIZONA

CITY           SKY/WX    TMP DP  RH WIND       PRES   REMARKS
BULLHEAD CITY  SUNNY     77  32  19 CALM      29.72R
KINGMAN        SUNNY     82  30  15 S8        29.89S
$$

AZZ004>008-015-016-018-241500-
NORTH CENTRAL ARIZONA

CITY           SKY/WX    TMP DP  RH WIND       PRES   REMARKS
GRAND CANYON   SUNNY     51  32  48 CALM      30.13S
WILLIAMS       SUNNY     55  32  41 S7        30.14S
PRESCOTT       SUNNY     62  33  33 CALM      30.04R
FLAGSTAFF      SUNNY     52  32  46 CALM      30.16R
PAYSON         SUNNY     64  27  24 CALM      30.07S
PAGE           SUNNY     67  35  30 N5        29.95S
$$

AZZ009>014-017-241500-
NORTHEAST ARIZONA

CITY           SKY/WX    TMP DP  RH WIND       PRES   REMARKS
WINSLOW        SUNNY     56  26  31 E8        30.04R
SAINT JOHNS    SUNNY     57  27  31 CALM      30.07S
WINDOW ROCK    SUNNY     49  30  48 CALM      30.13S
SHOW LOW       SUNNY     63  25  23 S10       30.12F
$$

AZZ023-241500-
GREATER PHOENIX AREA

CITY           SKY/WX    TMP DP  RH WIND       PRES   REMARKS
PHOENIX        MOSUNNY   79  32  18 E9        29.76R
BUCKEYE        SUNNY     82  27  13 E3        29.77R
GLENDALE       MOSUNNY   77  36  22 CALM      29.78R
LUKE AFB       SUNNY     77  39  25 CALM      29.76R
DEER VALLEY    SUNNY     79  28  15 E6        29.78R
SCOTTSDALE     SUNNY     77  37  23 CALM      29.81R
MESA-FALCON    SUNNY    N/A N/A N/A CALM      29.80R
MESA-GATEWAY   SUNNY     75  34  22 SE8       29.80R
CHANDLER       SUNNY     75  41  29 NE8       29.78S
$$

AZZ027-028-241500-
SOUTHWEST MARICOPA COUNTY AND PINAL COUNTY

CITY           SKY/WX    TMP DP  RH WIND       PRES   REMARKS
CASA GRANDE    SUNNY     77  31  18 E6        29.81R
$$

AZZ503-504-507>509-241500-
SOUTHEAST ARIZONA

CITY           SKY/WX    TMP DP  RH WIND       PRES   REMARKS
TUCSON         SUNNY     75  24  15 SE10      29.92S
DAVIS-MONTHAN  SUNNY     75  23  14 E5        29.91R
RYAN FIELD     SUNNY     72  28  20 E6        29.91R
NOGALES        SUNNY     70  25  18 N3        29.99S
SIERRA VISTA   SUNNY     77  21  12 W9        30.05R
DOUGLAS        SUNNY     73  19  13 N5        30.01R
SAFFORD        SUNNY     68  23  18 CALM      29.92R
$$

AZZ020-021-025-026-031-241500-
SOUTHWEST ARIZONA

CITY           SKY/WX    TMP DP  RH WIND       PRES   REMARKS
YUMA           SUNNY     78  42  27 S5        29.71R
$$

CAZ031-033-041-043-047-048-061-241500-
SOUTHERN CALIFORNIA

CITY           SKY/WX    TMP DP  RH WIND       PRES   REMARKS
DOWNTOWN L.A.  CLOUDY    61  56  83 W3        29.88R HAZE
L.A. AIRPORT   CLOUDY    58  57  97 W8        29.89R FOG
SAN DIEGO      CLOUDY    61  57  87 NE5       29.89R
BURBANK        PTSUNNY   57  54  89 SE7       29.88R FOG
ONTARIO        MOSUNNY   60  54  80 VRB5      29.86S
RIVERSIDE      MOSUNNY   60  56  86 CALM      29.86F
PALM SPRINGS   SUNNY     82  47  29 CALM      29.72S
EL CENTRO NAS  MOSUNNY   80  32  17 W6        29.70R
IMPERIAL       MOSUNNY   78  39  24 W6        29.68R
BLYTHE         SUNNY     78  38  23 NW6       29.70R
NEEDLES        SUNNY     85  22  10 CALM      29.72S
$$

NVZ020-UTZ003-241500-
SOUTHERN NEVADA-UTAH

CITY           SKY/WX    TMP DP  RH WIND       PRES   REMARKS
LAS VEGAS      SUNNY     82  30  15 CALM      29.77R
SALT LAKE CITY MOSUNNY   67  42  40 SE14      29.85S
$$

NMZ009-TXZ055-241500-
NEW MEXICO-WEST TEXAS

CITY           SKY/WX    TMP DP  RH WIND       PRES   REMARKS
ALBUQUERQUE    MOSUNNY   54  33  45 CALM      30.07S
EL PASO        MOSUNNY   63  37  38 CALM      30.03S
$$


........................KEY........................
SKY/WX - SKY CONDITION/WEATHER
TMP    - TEMPERATURE IN FAHRENHEIT
DP     - DEWPOINT IN FAHRENHEIT
RH     - RELATIVE HUMIDITY IN PERCENT
WIND   - DIRECTION AND SPEED IN MILES PER HOUR (MPH)
VRB    - VARIABLE WIND DIRECTION
PRES   - MEAN SEA LEVEL PRESSURE IN INCHES OF MERCURY
         F - FALLING PRESSURE   R - RISING PRESSURE
         S - STEADY PRESSURE
VSB    - VISIBILITY IN MILES
HX     - HEAT INDEX IN FAHRENHEIT
WCI    - WIND CHILL INDEX IN FAHRENHEIT
TC     - TEMPERATURE IN CELSIUS WHICH IS ALSO KNOWN AS
         TEMPERATURE IN CENTIGRADE
AFB    - AIR FORCE BASE
         LUKE AFB IS LUKE AIR FORCE BASE
         DAVIS-MONTHAN IS DAVIS-MONTHAN AIR FORCE BASE
NAS    - NAVAL AIR STATION
         EL CENTRO NAS IS EL CENTRO NAVAL AIR STATION
N/A    - NOT AVAILABLE




USA.gov is the U.S. government's official web portal to all federal, state and local government web resources and services.